Simultaneous Nadir Overpasses (SNOs) Predictions

Prediction of SNOs between NOAA-15 and METOP-C Satellite Orbit:

Table of predicted SNOs for the next 14.0 days since TLE Epoch: 4/20/2024
Index Date (NOAA-15) Time (NOAA-15) Lat,Lon (NOAA-15) SZA (NOAA-15 ) Date (METOP-C) Time (METOP-C) Lat,Lon (METOP-C) SZA (METOP-C ) Distance(km) Time Diff (sec)
1 04/25/2024 18:08:00 -81.05, 126.57 110.44 04/25/2024 18:06:56 -81.05, 126.42 110.48 2.57 64
2 04/25/2024 18:58:33 81.06, -66.35 69.54 04/25/2024 18:57:37 81.05, -66.24 69.52 2.41 56
3 04/25/2024 19:49:00 -81.04, 101.34 110.46 04/25/2024 19:48:17 -81.06, 101.31 110.47 1.28 43
4 04/25/2024 20:39:32 81.04, -91.22 69.54 04/25/2024 20:38:58 81.06, -91.34 69.52 2.78 34
5 04/25/2024 21:30:01 -81.06, 75.75 110.50 04/25/2024 21:29:39 -81.05, 75.84 110.51 1.94 22
6 04/25/2024 22:20:33 81.06,-116.81 69.50 04/25/2024 22:20:20 81.05,-116.82 69.48 0.82 13
7 04/25/2024 23:11:01 -81.06, 50.52 110.52 04/25/2024 23:11:01 -81.04, 50.36 110.55 3.28 0
8 04/26/2024 00:01:33 81.06,-142.05 69.48 04/26/2024 00:01:41 81.06,-141.93 69.49 2.09 8
9 04/26/2024 00:52:01 -81.06, 25.30 110.54 04/26/2024 00:52:22 -81.05, 25.25 110.54 0.92 21
10 04/26/2024 01:42:33 81.06,-167.28 69.45 04/26/2024 01:43:03 81.05,-167.40 69.45 2.18 30
11 04/26/2024 02:33:01 -81.06, 0.07 110.56 04/26/2024 02:33:43 -81.06, 0.15 110.53 1.47 42
12 04/26/2024 03:23:33 81.06, 167.49 69.43 04/26/2024 03:24:24 81.06, 167.49 69.46 0.89 51
13 04/26/2024 04:14:01 -81.06, -25.16 110.59 04/26/2024 04:15:05 -81.06, -25.33 110.57 2.96 64



Historial Predications of SNOs between NOAA-15 and METOP-C
